Regional Weather Roundup
Issued by NWS

Home | Current Version | Previous Version | Text Only | Print | Product List | Glossary Off
Versions: 1 2 3 4 5 6 7 8 9 10 11 12 13 14 15 16 17 18 19 20 21 22 23 24 25 26 27 28 29 30 31 32 33 34 35 36 37 38 39 40 41 42 43 44 45 46 47 48 49 50

000
ASUS43 KOAX 290702
RWRNE

WEATHER ROUNDUP FOR NEBRASKA
NATIONAL WEATHER SERVICE OMAHA NE
100 AM CST MON DEC 29 2014

NOTES: SATELLITE DATA IS BEING USED TO AUGMENT CLOUD COVER ABOVE
       12000 FEET.
       "FAIR" INDICATES FEW OR NO CLOUDS BELOW 12,000 FEET WITH NO
       SIGNIFICANT WEATHER AND/OR OBSTRUCTIONS TO VISIBILITY.

  * THESE STATIONS DO NOT REPORT WEATHER SUCH AS RAIN...SNOW OR FOG.

NEZ001>004-019>022-054>056-290800-
NEBRASKA PANHANDLE

CITY           SKY/WX    TMP DP  RH WIND       PRES   REMARKS
SCOTTSBLUFF    CLOUDY    16  12  84 W5        30.03R WCI   9
ALLIANCE       LGT SNOW  21  20  96 NE7       30.01R VSB 1   WCI  12
CHADRON        LGT SNOW  15  11  83 NE14      30.13R VSB 1   WCI   0
KIMBALL        MOCLDY    17  15  94 W7        29.94S WCI   7
SIDNEY         CLOUDY    18  12  77 NW10      29.98R WCI   6
$$

NEZ057>060-069>072-079>082-290800-
SOUTHWEST NEBRASKA

CITY           SKY/WX    TMP DP  RH WIND       PRES   REMARKS
NORTH PLATTE   CLOUDY    21  17  84 E3        30.09R
IMPERIAL       PTCLDY     6   2  83 CALM      30.04F
LEXINGTON      CLOUDY    17  14  89 NE3       30.12R
MCCOOK         CLEAR     15  12  88 NE3       30.09R
OGALLALA       MOCLDY     6   4  90 CALM      30.05R
$$

NEZ005>010-023>029-035>040-094-290800-
NORTH CENTRAL NEBRASKA

CITY           SKY/WX    TMP DP  RH WIND       PRES   REMARKS
VALENTINE      LGT SNOW  16  13  88 E16       30.18R FOG     WCI   1
AINSWORTH      LGT SNOW  16  13  90 E7        30.18R WCI   6
BROKEN BOW     CLOUDY    19  14  81 NE6       30.13R WCI  11
O`NEILL        CLOUDY    17  16  95 NE8       30.22S FOG     WCI   7
ORD            CLOUDY    18  14  84 NE8       30.17S WCI   8
$$

NEZ041-046>049-061>064-073>077-083>087-290800-
SOUTH CENTRAL NEBRASKA

CITY           SKY/WX    TMP DP  RH WIND       PRES   REMARKS
GRAND ISLAND   CLOUDY    19  15  84 NE9       30.18S WCI   8
AURORA         CLOUDY    21  18  90 NE8       30.17S WCI  11
HASTINGS       CLOUDY    21  17  84 NE9       30.14R WCI  11
HEBRON         MOCLDY    26  22  85 NE3       30.17R
HOLDREGE       CLEAR     16  14  91 NE8       30.11R WCI   5
KEARNEY *      CLOUDY    19  16  86 NE12      30.13S WCI   7
YORK           CLOUDY    21  18  86 NE12      30.18S WCI   9
$$

NEZ011>018-030>034-042>045-290800-
NORTHEAST NEBRASKA

CITY           SKY/WX    TMP DP  RH WIND       PRES   REMARKS
NORFOLK        CLOUDY    19  16  88 NE8       30.22S WCI   9
ALBION         PTCLDY    16  13  87 CALM      30.21R
BLAIR          CLEAR     22  19  91 N12       30.20F WCI  10
COLUMBUS *     MOCLDY    19  10  68 NE10      30.22S WCI   8
FREMONT        PTCLDY    21  18  88 N3        30.23S
TEKAMAH        CLEAR     19  15  84 N9        30.26R WCI   8
WAYNE          CLOUDY    20  17  90 NE8       30.25S FOG     WCI  10
$$

NEZ050>053-065>068-078-088>093-290800-
SOUTHEAST NEBRASKA

CITY           SKY/WX    TMP DP  RH WIND       PRES   REMARKS
LINCOLN        MOCLDY    23  19  85 N9        30.22S WCI  13
OMAHA EPPLEY   MOCLDY    24  21  88 N9        30.24R WCI  14
BEATRICE       CLOUDY    29  25  85 NE8       30.17S WCI  21
FALLS CITY     CLOUDY    30  23  75 SE3       30.19R
NEBRASKA CITY  PTCLDY    28  23  84 N7        30.19R WCI  20
$$

NEZ044-045-051>053-067-290800-
OMAHA AREA

CITY           SKY/WX    TMP DP  RH WIND       PRES   REMARKS
OMAHA EPPLEY   MOCLDY    24  21  88 N9        30.24R WCI  14
BLAIR          CLEAR     22  19  91 N12       30.20F WCI  10
FREMONT        PTCLDY    21  18  88 N3        30.23S
MILLARD        PTCLDY    25  22  87 CALM      30.22S
OFFUTT AFB     CLEAR     26  22  88 N7        30.21S WCI  18
WAHOO          FAIR      21  18  86 N7        30.22S WCI  13
$$



USA.gov is the U.S. government's official web portal to all federal, state and local government web resources and services.